owner,sensor,date,latitude,longitude,vertical_datum,wind_speed,wind_to_direction,wind_speed_of_gust,qcFlag 
TCOON,ioos:station:TCOON:003:1,2017-01-01T00:06:00Z,26.8015,-97.4706,0.0,3.4,82.0,4.2,'11111222,11111222,11111222' 
TCOON,ioos:station:TCOON:003:1,2017-01-01T00:12:00Z,26.8015,-97.4706,0.0,3.0,78.0,4.0,'11111222,11111222,11111222' 
TCOON,ioos:station:TCOON:003:1,2017-01-01T00:18:00Z,26.8015,-97.4706,0.0,3.7,78.0,4.2,'11111222,11111222,11111222' 
TCOON,ioos:station:TCOON:003:1,2017-01-01T00:24:00Z,26.8015,-97.4706,0.0,3.7,78.0,4.2,'1111122,1111122,1111122' 
TCOON,ioos:station:TCOON:003:1,2017-01-01T00:30:00Z,26.8015,-97.4706,0.0,3.3,79.0,4.3,'11111222,11111222,11111222' 
TCOON,ioos:station:TCOON:003:1,2017-01-01T00:36:00Z,26.8015,-97.4706,0.0,3.6,81.0,4.2,'11111222,11111222,11111222' 
TCOON,ioos:station:TCOON:003:1,2017-01-01T00:42:00Z,26.8015,-97.4706,0.0,3.3,80.0,3.7,'11111222,11111222,11111222' 
TCOON,ioos:station:TCOON:003:1,2017-01-01T00:48:00Z,26.8015,-97.4706,0.0,3.1,82.0,3.9,'11111222,11111222,11111222' 
TCOON,ioos:station:TCOON:003:1,2017-01-01T00:54:00Z,26.8015,-97.4706,0.0,2.7,77.0,3.5,'11111222,11111222,11111222' 
TCOON,ioos:station:TCOON:003:1,2017-01-01T01:00:00Z,26.8015,-97.4706,0.0,2.8,72.0,3.3,'11111222,11111222,11111222' 
TCOON,ioos:station:TCOON:003:1,2017-01-01T01:06:00Z,26.8015,-97.4706,0.0,2.5,74.0,3.2,'11111222,11111222,11111222' 
TCOON,ioos:station:TCOON:003:1,2017-01-01T01:12:00Z,26.8015,-97.4706,0.0,2.6,72.0,3.2,'11111222,11111222,11111222' 
TCOON,ioos:station:TCOON:003:1,2017-01-01T01:18:00Z,26.8015,-97.4706,0.0,2.6,72.0,3.2,'1111122,1111122,1111122' 
TCOON,ioos:station:TCOON:003:1,2017-01-01T01:24:00Z,26.8015,-97.4706,0.0,2.4,60.0,3.3,'11111222,11111222,11111222' 
TCOON,ioos:station:TCOON:003:1,2017-01-01T01:30:00Z,26.8015,-97.4706,0.0,2.6,66.0,2.8,'11111222,11111222,11111222' 
TCOON,ioos:station:TCOON:003:1,2017-01-01T01:36:00Z,26.8015,-97.4706,0.0,2.6,60.0,2.8,'11111222,11111222,11111222' 
TCOON,ioos:station:TCOON:003:1,2017-01-01T01:42:00Z,26.8015,-97.4706,0.0,2.3,75.0,2.9,'11111222,11111222,11111222' 
TCOON,ioos:station:TCOON:003:1,2017-01-01T01:48:00Z,26.8015,-97.4706,0.0,2.3,66.0,2.9,'11111222,11111222,11111222' 
TCOON,ioos:station:TCOON:003:1,2017-01-01T01:54:00Z,26.8015,-97.4706,0.0,2.4,66.0,2.8,'11111222,11111222,11111222' 
TCOON,ioos:station:TCOON:003:1,2017-01-01T02:00:00Z,26.8015,-97.4706,0.0,2.3,55.0,2.8,'11111222,11111222,11111222' 
TCOON,ioos:station:TCOON:003:1,2017-01-01T02:06:00Z,26.8015,-97.4706,0.0,2.5,54.0,2.8,'11111222,11111222,11111222' 
TCOON,ioos:station:TCOON:003:1,2017-01-01T02:12:00Z,26.8015,-97.4706,0.0,2.6,47.0,3.0,'11111222,11111222,11111222' 
TCOON,ioos:station:TCOON:003:1,2017-01-01T02:18:00Z,26.8015,-97.4706,0.0,2.6,47.0,3.0,'1111122,1111122,1111122' 
TCOON,ioos:station:TCOON:003:1,2017-01-01T02:24:00Z,26.8015,-97.4706,0.0,2.2,50.0,2.6,'11111222,11111222,11111222' 
TCOON,ioos:station:TCOON:003:1,2017-01-01T02:30:00Z,26.8015,-97.4706,0.0,2.8,57.0,2.9,'11111222,11111222,11111222' 
TCOON,ioos:station:TCOON:003:1,2017-01-01T02:36:00Z,26.8015,-97.4706,0.0,2.6,48.0,2.9,'11111222,11111222,11111222' 
TCOON,ioos:station:TCOON:003:1,2017-01-01T02:42:00Z,26.8015,-97.4706,0.0,2.2,46.0,2.8,'11111222,11111222,11111222' 
TCOON,ioos:station:TCOON:003:1,2017-01-01T02:48:00Z,26.8015,-97.4706,0.0,2.2,53.0,2.8,'11111222,11111222,11111222' 
TCOON,ioos:station:TCOON:003:1,2017-01-01T02:54:00Z,26.8015,-97.4706,0.0,2.3,63.0,2.9,'11111222,11111222,11111222' 
TCOON,ioos:station:TCOON:003:1,2017-01-01T03:00:00Z,26.8015,-97.4706,0.0,2.6,60.0,2.9,'11111222,11111222,11111222' 
TCOON,ioos:station:TCOON:003:1,2017-01-01T03:06:00Z,26.8015,-97.4706,0.0,2.5,53.0,2.9,'11111222,11111222,11111222' 
TCOON,ioos:station:TCOON:003:1,2017-01-01T03:12:00Z,26.8015,-97.4706,0.0,2.7,57.0,2.9,'11111222,11111222,11111222' 
TCOON,ioos:station:TCOON:003:1,2017-01-01T03:18:00Z,26.8015,-97.4706,0.0,2.7,57.0,2.9,'1111122,1111122,1111122' 
TCOON,ioos:station:TCOON:003:1,2017-01-01T03:24:00Z,26.8015,-97.4706,0.0,2.4,57.0,2.8,'11111222,11111222,11111222' 
TCOON,ioos:station:TCOON:003:1,2017-01-01T03:30:00Z,26.8015,-97.4706,0.0,2.1,65.0,2.4,'11111222,11111222,11111222' 
TCOON,ioos:station:TCOON:003:1,2017-01-01T03:36:00Z,26.8015,-97.4706,0.0,2.1,72.0,2.2,'11111222,11111222,11111222' 
TCOON,ioos:station:TCOON:003:1,2017-01-01T03:42:00Z,26.8015,-97.4706,0.0,1.7,80.0,2.1,'11111222,11111222,11111222' 
TCOON,ioos:station:TCOON:003:1,2017-01-01T03:48:00Z,26.8015,-97.4706,0.0,1.5,78.0,1.7,'11111222,11111222,11111222' 
TCOON,ioos:station:TCOON:003:1,2017-01-01T03:54:00Z,26.8015,-97.4706,0.0,1.4,86.0,1.5,'11111222,11111222,11111222' 
TCOON,ioos:station:TCOON:003:1,2017-01-01T04:00:00Z,26.8015,-97.4706,0.0,1.2,87.0,1.4,'11111222,11111222,11111222' 
TCOON,ioos:station:TCOON:003:1,2017-01-01T04:06:00Z,26.8015,-97.4706,0.0,1.4,114.0,1.6,'11111222,11111222,11111222' 
TCOON,ioos:station:TCOON:003:1,2017-01-01T04:12:00Z,26.8015,-97.4706,0.0,1.3,127.0,1.5,'11111222,11111222,11111222' 
TCOON,ioos:station:TCOON:003:1,2017-01-01T04:18:00Z,26.8015,-97.4706,0.0,1.1,129.0,1.3,'11111222,11111222,11111222' 
TCOON,ioos:station:TCOON:003:1,2017-01-01T04:24:00Z,26.8015,-97.4706,0.0,0.6,129.0,1.1,'11111222,11111222,11111222' 
TCOON,ioos:station:TCOON:003:1,2017-01-01T04:30:00Z,26.8015,-97.4706,0.0,0.6,129.0,1.1,'1111122,1111122,1111122' 
TCOON,ioos:station:TCOON:003:1,2017-01-01T04:36:00Z,26.8015,-97.4706,0.0,1.2,135.0,1.2,'11111222,11111222,11111222' 
TCOON,ioos:station:TCOON:003:1,2017-01-01T04:42:00Z,26.8015,-97.4706,0.0,1.3,145.0,1.4,'11111222,11111222,11111222' 
TCOON,ioos:station:TCOON:003:1,2017-01-01T04:48:00Z,26.8015,-97.4706,0.0,1.6,169.0,1.9,'11111222,11111222,11111222' 
TCOON,ioos:station:TCOON:003:1,2017-01-01T04:54:00Z,26.8015,-97.4706,0.0,2.3,170.0,2.5,'11111222,11111222,11111222' 
TCOON,ioos:station:TCOON:003:1,2017-01-01T05:00:00Z,26.8015,-97.4706,0.0,1.7,186.0,2.4,'11111222,11111222,11111222' 
TCOON,ioos:station:TCOON:003:1,2017-01-01T05:06:00Z,26.8015,-97.4706,0.0,1.3,183.0,1.7,'11111222,11111222,11111222' 
TCOON,ioos:station:TCOON:003:1,2017-01-01T05:12:00Z,26.8015,-97.4706,0.0,1.1,186.0,1.4,'11111222,11111222,11111222' 
TCOON,ioos:station:TCOON:003:1,2017-01-01T05:18:00Z,26.8015,-97.4706,0.0,1.0,204.0,1.2,'11111222,11111222,11111222' 
TCOON,ioos:station:TCOON:003:1,2017-01-01T05:24:00Z,26.8015,-97.4706,0.0,1.0,204.0,1.2,'1111122,1111122,1111122' 
TCOON,ioos:station:TCOON:003:1,2017-01-01T05:30:00Z,26.8015,-97.4706,0.0,1.1,198.0,1.3,'11111222,11111222,11111222' 
TCOON,ioos:station:TCOON:003:1,2017-01-01T05:36:00Z,26.8015,-97.4706,0.0,0.8,198.0,1.1,'11111222,11111222,11111222' 
TCOON,ioos:station:TCOON:003:1,2017-01-01T05:42:00Z,26.8015,-97.4706,0.0,0.7,198.0,0.8,'11111222,11111222,11111222' 
TCOON,ioos:station:TCOON:003:1,2017-01-01T05:48:00Z,26.8015,-97.4706,0.0,0.7,187.0,0.7,'11111222,11111222,11111222' 
TCOON,ioos:station:TCOON:003:1,2017-01-01T05:54:00Z,26.8015,-97.4706,0.0,0.5,162.0,0.7,'11111222,11111222,11111222' 
TCOON,ioos:station:TCOON:003:1,2017-01-01T06:00:00Z,26.8015,-97.4706,0.0,1.3,140.0,1.4,'11111222,11111222,11111222' 
TCOON,ioos:station:TCOON:003:1,2017-01-01T06:06:00Z,26.8015,-97.4706,0.0,0.8,158.0,1.3,'11111222,11111222,11111222' 
TCOON,ioos:station:TCOON:003:1,2017-01-01T06:12:00Z,26.8015,-97.4706,0.0,0.4,158.0,0.6,'11111222,11111222,11111222' 
TCOON,ioos:station:TCOON:003:1,2017-01-01T06:18:00Z,26.8015,-97.4706,0.0,0.4,158.0,0.6,'1111122,1111122,1111122' 
TCOON,ioos:station:TCOON:003:1,2017-01-01T06:24:00Z,26.8015,-97.4706,0.0,1.3,124.0,1.5,'11111222,11111222,11111222' 
TCOON,ioos:station:TCOON:003:1,2017-01-01T06:30:00Z,26.8015,-97.4706,0.0,1.0,116.0,1.2,'11111222,11111222,11111222' 
TCOON,ioos:station:TCOON:003:1,2017-01-01T06:36:00Z,26.8015,-97.4706,0.0,1.4,110.0,1.5,'11111222,11111222,11111222' 
TCOON,ioos:station:TCOON:003:1,2017-01-01T06:42:00Z,26.8015,-97.4706,0.0,0.9,103.0,1.5,'11111222,11111222,11111222' 
TCOON,ioos:station:TCOON:003:1,2017-01-01T06:48:00Z,26.8015,-97.4706,0.0,1.1,79.0,1.1,'11111222,11111222,11111222' 
TCOON,ioos:station:TCOON:003:1,2017-01-01T06:54:00Z,26.8015,-97.4706,0.0,0.7,60.0,1.0,'11111222,11111222,11111222' 
TCOON,ioos:station:TCOON:003:1,2017-01-01T07:00:00Z,26.8015,-97.4706,0.0,0.6,57.0,0.7,'11111222,11111222,11111222' 
TCOON,ioos:station:TCOON:003:1,2017-01-01T07:06:00Z,26.8015,-97.4706,0.0,0.5,57.0,0.5,'11111222,11111222,11111222' 
TCOON,ioos:station:TCOON:003:1,2017-01-01T07:12:00Z,26.8015,-97.4706,0.0,0.7,57.0,0.8,'11111222,11111222,11111222' 
TCOON,ioos:station:TCOON:003:1,2017-01-01T07:18:00Z,26.8015,-97.4706,0.0,0.7,57.0,0.8,'1111122,1111122,1111122' 
TCOON,ioos:station:TCOON:003:1,2017-01-01T07:24:00Z,26.8015,-97.4706,0.0,0.1,33.0,0.6,'11111222,11111222,11111222' 
TCOON,ioos:station:TCOON:003:1,2017-01-01T07:30:00Z,26.8015,-97.4706,0.0,1.2,309.0,1.4,'11111222,11111222,11111222' 
TCOON,ioos:station:TCOON:003:1,2017-01-01T07:36:00Z,26.8015,-97.4706,0.0,1.4,296.0,1.5,'11111222,11111222,11111222' 
TCOON,ioos:station:TCOON:003:1,2017-01-01T07:42:00Z,26.8015,-97.4706,0.0,1.8,297.0,1.8,'11111222,11111222,11111222' 
TCOON,ioos:station:TCOON:003:1,2017-01-01T07:48:00Z,26.8015,-97.4706,0.0,1.8,292.0,1.9,'11111222,11111222,11111222' 
TCOON,ioos:station:TCOON:003:1,2017-01-01T07:54:00Z,26.8015,-97.4706,0.0,2.1,294.0,2.3,'11111222,11111222,11111222' 
TCOON,ioos:station:TCOON:003:1,2017-01-01T08:00:00Z,26.8015,-97.4706,0.0,2.4,302.0,2.7,'11111222,11111222,11111222' 
TCOON,ioos:station:TCOON:003:1,2017-01-01T08:06:00Z,26.8015,-97.4706,0.0,2.4,310.0,2.7,'11111222,11111222,11111222' 
TCOON,ioos:station:TCOON:003:1,2017-01-01T08:12:00Z,26.8015,-97.4706,0.0,2.4,309.0,2.7,'11111222,11111222,11111222' 
TCOON,ioos:station:TCOON:003:1,2017-01-01T08:18:00Z,26.8015,-97.4706,0.0,2.4,309.0,2.7,'1111122,1111122,1111122' 
TCOON,ioos:station:TCOON:003:1,2017-01-01T08:24:00Z,26.8015,-97.4706,0.0,2.8,305.0,3.1,'11111222,11111222,11111222' 
TCOON,ioos:station:TCOON:003:1,2017-01-01T08:30:00Z,26.8015,-97.4706,0.0,2.7,298.0,3.2,'11111222,11111222,11111222' 
TCOON,ioos:station:TCOON:003:1,2017-01-01T08:36:00Z,26.8015,-97.4706,0.0,2.2,302.0,2.8,'11111222,11111222,11111222' 
TCOON,ioos:station:TCOON:003:1,2017-01-01T08:42:00Z,26.8015,-97.4706,0.0,1.8,304.0,2.6,'11111222,11111222,11111222' 
TCOON,ioos:station:TCOON:003:1,2017-01-01T08:48:00Z,26.8015,-97.4706,0.0,1.4,307.0,1.9,'11111222,11111222,11111222' 
TCOON,ioos:station:TCOON:003:1,2017-01-01T08:54:00Z,26.8015,-97.4706,0.0,1.2,312.0,1.6,'11111222,11111222,11111222' 
TCOON,ioos:station:TCOON:003:1,2017-01-01T09:00:00Z,26.8015,-97.4706,0.0,0.9,316.0,1.4,'11111222,11111222,11111222' 
TCOON,ioos:station:TCOON:003:1,2017-01-01T09:06:00Z,26.8015,-97.4706,0.0,1.2,320.0,1.4,'11111222,11111222,11111222' 
TCOON,ioos:station:TCOON:003:1,2017-01-01T09:12:00Z,26.8015,-97.4706,0.0,0.8,331.0,1.3,'11111222,11111222,11111222' 
TCOON,ioos:station:TCOON:003:1,2017-01-01T09:18:00Z,26.8015,-97.4706,0.0,1.0,333.0,1.3,'11111222,11111222,11111222' 
TCOON,ioos:station:TCOON:003:1,2017-01-01T09:24:00Z,26.8015,-97.4706,0.0,1.0,333.0,1.3,'1111122,1111122,1111122' 
TCOON,ioos:station:TCOON:003:1,2017-01-01T09:30:00Z,26.8015,-97.4706,0.0,0.8,73.0,0.9,'11111222,11111222,11111222' 
TCOON,ioos:station:TCOON:003:1,2017-01-01T09:36:00Z,26.8015,-97.4706,0.0,1.0,73.0,1.2,'11111222,11111222,11111222' 
TCOON,ioos:station:TCOON:003:1,2017-01-01T09:42:00Z,26.8015,-97.4706,0.0,0.1,73.0,1.0,'11111222,11111222,11111222' 
TCOON,ioos:station:TCOON:003:1,2017-01-01T09:48:00Z,26.8015,-97.4706,0.0,1.0,60.0,1.0,'11111222,11111222,11111222' 
TCOON,ioos:station:TCOON:003:1,2017-01-01T09:54:00Z,26.8015,-97.4706,0.0,0.2,54.0,1.0,'11111222,11111222,11111222' 
TCOON,ioos:station:TCOON:003:1,2017-01-01T10:00:00Z,26.8015,-97.4706,0.0,0.0,54.0,0.0,'11111222,11111222,11111222' 
TCOON,ioos:station:TCOON:003:1,2017-01-01T10:06:00Z,26.8015,-97.4706,0.0,0.0,54.0,0.0,'11111222,11111222,11111222' 
TCOON,ioos:station:TCOON:003:1,2017-01-01T10:12:00Z,26.8015,-97.4706,0.0,0.9,126.0,0.9,'11111222,11111222,11111222' 
TCOON,ioos:station:TCOON:003:1,2017-01-01T10:18:00Z,26.8015,-97.4706,0.0,0.9,126.0,0.9,'1111122,1111122,1111122' 
TCOON,ioos:station:TCOON:003:1,2017-01-01T10:24:00Z,26.8015,-97.4706,0.0,2.1,112.0,2.4,'11111222,11111222,11111222' 
TCOON,ioos:station:TCOON:003:1,2017-01-01T10:30:00Z,26.8015,-97.4706,0.0,2.2,106.0,2.7,'11111222,11111222,11111222' 
TCOON,ioos:station:TCOON:003:1,2017-01-01T10:36:00Z,26.8015,-97.4706,0.0,1.5,82.0,2.3,'11111222,11111222,11111222' 
TCOON,ioos:station:TCOON:003:1,2017-01-01T10:42:00Z,26.8015,-97.4706,0.0,0.7,92.0,1.6,'11111222,11111222,11111222' 
TCOON,ioos:station:TCOON:003:1,2017-01-01T10:48:00Z,26.8015,-97.4706,0.0,2.1,108.0,2.6,'11111222,11111222,11111222' 
TCOON,ioos:station:TCOON:003:1,2017-01-01T10:54:00Z,26.8015,-97.4706,0.0,2.1,104.0,3.2,'11111222,11111222,11111222' 
TCOON,ioos:station:TCOON:003:1,2017-01-01T11:00:00Z,26.8015,-97.4706,0.0,2.1,103.0,2.5,'11111222,11111222,11111222' 
TCOON,ioos:station:TCOON:003:1,2017-01-01T11:06:00Z,26.8015,-97.4706,0.0,2.0,86.0,2.8,'11111222,11111222,11111222' 
TCOON,ioos:station:TCOON:003:1,2017-01-01T11:12:00Z,26.8015,-97.4706,0.0,1.2,95.0,2.2,'11111222,11111222,11111222' 
TCOON,ioos:station:TCOON:003:1,2017-01-01T11:18:00Z,26.8015,-97.4706,0.0,1.2,95.0,2.2,'1111122,1111122,1111122' 
TCOON,ioos:station:TCOON:003:1,2017-01-01T11:24:00Z,26.8015,-97.4706,0.0,1.9,94.0,2.0,'11111222,11111222,11111222' 
TCOON,ioos:station:TCOON:003:1,2017-01-01T11:30:00Z,26.8015,-97.4706,0.0,1.6,100.0,2.2,'11111222,11111222,11111222' 
TCOON,ioos:station:TCOON:003:1,2017-01-01T11:36:00Z,26.8015,-97.4706,0.0,1.9,108.0,2.5,'11111222,11111222,11111222' 
TCOON,ioos:station:TCOON:003:1,2017-01-01T11:42:00Z,26.8015,-97.4706,0.0,1.1,102.0,1.7,'11111222,11111222,11111222' 
TCOON,ioos:station:TCOON:003:1,2017-01-01T11:48:00Z,26.8015,-97.4706,0.0,1.7,119.0,1.8,'11111222,11111222,11111222' 
TCOON,ioos:station:TCOON:003:1,2017-01-01T11:54:00Z,26.8015,-97.4706,0.0,1.9,123.0,2.0,'11111222,11111222,11111222' 
TCOON,ioos:station:TCOON:003:1,2017-01-01T12:00:00Z,26.8015,-97.4706,0.0,1.9,125.0,2.2,'11111222,11111222,11111222' 
TCOON,ioos:station:TCOON:003:1,2017-01-01T12:06:00Z,26.8015,-97.4706,0.0,2.2,128.0,2.3,'11111222,11111222,11111222' 
TCOON,ioos:station:TCOON:003:1,2017-01-01T12:12:00Z,26.8015,-97.4706,0.0,2.5,134.0,2.7,'11111222,11111222,11111222' 
TCOON,ioos:station:TCOON:003:1,2017-01-01T12:18:00Z,26.8015,-97.4706,0.0,2.5,134.0,2.7,'1111122,1111122,1111122' 
TCOON,ioos:station:TCOON:003:1,2017-01-01T12:24:00Z,26.8015,-97.4706,0.0,2.3,127.0,2.7,'11111222,11111222,11111222' 
TCOON,ioos:station:TCOON:003:1,2017-01-01T12:30:00Z,26.8015,-97.4706,0.0,2.9,120.0,3.1,'11111222,11111222,11111222' 
TCOON,ioos:station:TCOON:003:1,2017-01-01T12:36:00Z,26.8015,-97.4706,0.0,3.9,122.0,4.2,'11111222,11111222,11111222' 
TCOON,ioos:station:TCOON:003:1,2017-01-01T12:42:00Z,26.8015,-97.4706,0.0,3.6,118.0,4.4,'11111222,11111222,11111222' 
TCOON,ioos:station:TCOON:003:1,2017-01-01T12:48:00Z,26.8015,-97.4706,0.0,3.1,117.0,3.5,'11111222,11111222,11111222' 
TCOON,ioos:station:TCOON:003:1,2017-01-01T12:54:00Z,26.8015,-97.4706,0.0,2.6,118.0,3.3,'11111222,11111222,11111222' 
TCOON,ioos:station:TCOON:003:1,2017-01-01T13:00:00Z,26.8015,-97.4706,0.0,2.9,123.0,3.2,'11111222,11111222,11111222' 
TCOON,ioos:station:TCOON:003:1,2017-01-01T13:06:00Z,26.8015,-97.4706,0.0,3.8,122.0,4.0,'11111222,11111222,11111222' 
TCOON,ioos:station:TCOON:003:1,2017-01-01T13:12:00Z,26.8015,-97.4706,0.0,3.6,113.0,4.3,'11111222,11111222,11111222' 
TCOON,ioos:station:TCOON:003:1,2017-01-01T13:18:00Z,26.8015,-97.4706,0.0,3.6,113.0,4.3,'1111122,1111122,1111122' 
TCOON,ioos:station:TCOON:003:1,2017-01-01T13:24:00Z,26.8015,-97.4706,0.0,3.7,118.0,4.3,'11111222,11111222,11111222' 
TCOON,ioos:station:TCOON:003:1,2017-01-01T13:30:00Z,26.8015,-97.4706,0.0,4.2,125.0,4.7,'11111222,11111222,11111222' 
TCOON,ioos:station:TCOON:003:1,2017-01-01T13:36:00Z,26.8015,-97.4706,0.0,4.5,129.0,5.0,'11111222,11111222,11111222' 
TCOON,ioos:station:TCOON:003:1,2017-01-01T13:42:00Z,26.8015,-97.4706,0.0,5.1,124.0,5.6,'11111222,11111222,11111222' 
TCOON,ioos:station:TCOON:003:1,2017-01-01T13:48:00Z,26.8015,-97.4706,0.0,5.1,133.0,6.0,'11111222,11111222,11111222' 
TCOON,ioos:station:TCOON:003:1,2017-01-01T13:54:00Z,26.8015,-97.4706,0.0,4.2,135.0,4.9,'11111222,11111222,11111222' 
TCOON,ioos:station:TCOON:003:1,2017-01-01T14:00:00Z,26.8015,-97.4706,0.0,4.6,143.0,4.9,'11111222,11111222,11111222' 
TCOON,ioos:station:TCOON:003:1,2017-01-01T14:06:00Z,26.8015,-97.4706,0.0,5.7,125.0,6.4,'11111222,11111222,11111222' 
TCOON,ioos:station:TCOON:003:1,2017-01-01T14:12:00Z,26.8015,-97.4706,0.0,8.8,118.0,9.6,'11111222,11111222,11111222' 
TCOON,ioos:station:TCOON:003:1,2017-01-01T14:18:00Z,26.8015,-97.4706,0.0,7.8,120.0,9.0,'11111222,11111222,11111222' 
TCOON,ioos:station:TCOON:003:1,2017-01-01T14:24:00Z,26.8015,-97.4706,0.0,7.8,120.0,9.0,'1111122,1111122,1111122' 
TCOON,ioos:station:TCOON:003:1,2017-01-01T14:30:00Z,26.8015,-97.4706,0.0,7.3,107.0,8.5,'11111222,11111222,11111222' 
TCOON,ioos:station:TCOON:003:1,2017-01-01T14:36:00Z,26.8015,-97.4706,0.0,6.7,104.0,7.8,'11111222,11111222,11111222' 
TCOON,ioos:station:TCOON:003:1,2017-01-01T14:42:00Z,26.8015,-97.4706,0.0,7.7,112.0,8.3,'11111222,11111222,11111222' 
TCOON,ioos:station:TCOON:003:1,2017-01-01T14:48:00Z,26.8015,-97.4706,0.0,8.6,116.0,10.2,'11111222,11111222,11111222' 
TCOON,ioos:station:TCOON:003:1,2017-01-01T14:54:00Z,26.8015,-97.4706,0.0,8.9,115.0,10.0,'11111222,11111222,11111222' 
TCOON,ioos:station:TCOON:003:1,2017-01-01T15:00:00Z,26.8015,-97.4706,0.0,8.6,116.0,9.8,'11111222,11111222,11111222' 
TCOON,ioos:station:TCOON:003:1,2017-01-01T15:06:00Z,26.8015,-97.4706,0.0,8.2,122.0,9.9,'11111222,11111222,11111222' 
TCOON,ioos:station:TCOON:003:1,2017-01-01T15:12:00Z,26.8015,-97.4706,0.0,8.9,123.0,10.1,'11111222,11111222,11111222' 
TCOON,ioos:station:TCOON:003:1,2017-01-01T15:18:00Z,26.8015,-97.4706,0.0,8.9,123.0,10.1,'1111122,1111122,1111122' 
TCOON,ioos:station:TCOON:003:1,2017-01-01T15:24:00Z,26.8015,-97.4706,0.0,5.4,120.0,7.6,'11111222,11111222,11111222' 
TCOON,ioos:station:TCOON:003:1,2017-01-01T15:30:00Z,26.8015,-97.4706,0.0,5.6,118.0,6.3,'11111222,11111222,11111222' 
TCOON,ioos:station:TCOON:003:1,2017-01-01T15:36:00Z,26.8015,-97.4706,0.0,4.7,120.0,6.2,'11111222,11111222,11111222' 
TCOON,ioos:station:TCOON:003:1,2017-01-01T15:42:00Z,26.8015,-97.4706,0.0,6.5,131.0,7.2,'11111222,11111222,11111222' 
TCOON,ioos:station:TCOON:003:1,2017-01-01T15:48:00Z,26.8015,-97.4706,0.0,7.5,132.0,8.3,'11111222,11111222,11111222' 
TCOON,ioos:station:TCOON:003:1,2017-01-01T15:54:00Z,26.8015,-97.4706,0.0,6.3,133.0,7.9,'11111222,11111222,11111222' 
TCOON,ioos:station:TCOON:003:1,2017-01-01T16:00:00Z,26.8015,-97.4706,0.0,5.6,134.0,6.6,'11111222,11111222,11111222' 
TCOON,ioos:station:TCOON:003:1,2017-01-01T16:06:00Z,26.8015,-97.4706,0.0,5.5,135.0,6.3,'11111222,11111222,11111222' 
TCOON,ioos:station:TCOON:003:1,2017-01-01T16:12:00Z,26.8015,-97.4706,0.0,3.5,126.0,5.9,'11111222,11111222,11111222' 
TCOON,ioos:station:TCOON:003:1,2017-01-01T16:18:00Z,26.8015,-97.4706,0.0,3.5,126.0,5.9,'1111122,1111122,1111122' 
TCOON,ioos:station:TCOON:003:1,2017-01-01T16:24:00Z,26.8015,-97.4706,0.0,3.5,113.0,5.1,'11111222,11111222,11111222' 
TCOON,ioos:station:TCOON:003:1,2017-01-01T16:30:00Z,26.8015,-97.4706,0.0,2.6,132.0,3.6,'11111222,11111222,11111222' 
TCOON,ioos:station:TCOON:003:1,2017-01-01T16:36:00Z,26.8015,-97.4706,0.0,4.2,138.0,4.6,'11111222,11111222,11111222' 
TCOON,ioos:station:TCOON:003:1,2017-01-01T16:42:00Z,26.8015,-97.4706,0.0,4.8,130.0,5.2,'11111222,11111222,11111222' 
TCOON,ioos:station:TCOON:003:1,2017-01-01T16:48:00Z,26.8015,-97.4706,0.0,4.8,125.0,5.4,'11111222,11111222,11111222' 
TCOON,ioos:station:TCOON:003:1,2017-01-01T16:54:00Z,26.8015,-97.4706,0.0,5.3,127.0,6.0,'11111222,11111222,11111222' 
TCOON,ioos:station:TCOON:003:1,2017-01-01T17:00:00Z,26.8015,-97.4706,0.0,5.5,132.0,6.2,'11111222,11111222,11111222' 
TCOON,ioos:station:TCOON:003:1,2017-01-01T17:06:00Z,26.8015,-97.4706,0.0,4.6,140.0,5.6,'11111222,11111222,11111222' 
TCOON,ioos:station:TCOON:003:1,2017-01-01T17:12:00Z,26.8015,-97.4706,0.0,4.0,154.0,5.3,'11111222,11111222,11111222' 
TCOON,ioos:station:TCOON:003:1,2017-01-01T17:18:00Z,26.8015,-97.4706,0.0,4.0,154.0,5.3,'1111122,1111122,1111122' 
TCOON,ioos:station:TCOON:003:1,2017-01-01T17:24:00Z,26.8015,-97.4706,0.0,4.8,180.0,5.2,'11111222,11111222,11111222' 
TCOON,ioos:station:TCOON:003:1,2017-01-01T17:30:00Z,26.8015,-97.4706,0.0,5.6,181.0,6.0,'11111222,11111222,11111222' 
TCOON,ioos:station:TCOON:003:1,2017-01-01T17:36:00Z,26.8015,-97.4706,0.0,5.3,191.0,6.6,'11111222,11111222,11111222' 
TCOON,ioos:station:TCOON:003:1,2017-01-01T17:42:00Z,26.8015,-97.4706,0.0,3.7,188.0,5.3,'11111222,11111222,11111222' 
TCOON,ioos:station:TCOON:003:1,2017-01-01T17:48:00Z,26.8015,-97.4706,0.0,5.5,181.0,6.5,'11111222,11111222,11111222' 
TCOON,ioos:station:TCOON:003:1,2017-01-01T17:54:00Z,26.8015,-97.4706,0.0,6.6,179.0,7.2,'11111222,11111222,11111222' 
TCOON,ioos:station:TCOON:003:1,2017-01-01T18:00:00Z,26.8015,-97.4706,0.0,5.6,186.0,7.0,'11111222,11111222,11111222' 
TCOON,ioos:station:TCOON:003:1,2017-01-01T18:06:00Z,26.8015,-97.4706,0.0,5.9,180.0,6.4,'11111222,11111222,11111222' 
TCOON,ioos:station:TCOON:003:1,2017-01-01T18:12:00Z,26.8015,-97.4706,0.0,5.5,171.0,6.5,'11111222,11111222,11111222' 
TCOON,ioos:station:TCOON:003:1,2017-01-01T18:18:00Z,26.8015,-97.4706,0.0,4.2,168.0,5.5,'11111222,11111222,11111222' 
TCOON,ioos:station:TCOON:003:1,2017-01-01T18:24:00Z,26.8015,-97.4706,0.0,4.2,168.0,5.5,'1111122,1111122,1111122' 
TCOON,ioos:station:TCOON:003:1,2017-01-01T18:30:00Z,26.8015,-97.4706,0.0,3.9,176.0,4.7,'11111222,11111222,11111222' 
TCOON,ioos:station:TCOON:003:1,2017-01-01T18:36:00Z,26.8015,-97.4706,0.0,3.9,164.0,4.6,'11111222,11111222,11111222' 
TCOON,ioos:station:TCOON:003:1,2017-01-01T18:42:00Z,26.8015,-97.4706,0.0,3.9,155.0,5.0,'11111222,11111222,11111222' 
TCOON,ioos:station:TCOON:003:1,2017-01-01T18:48:00Z,26.8015,-97.4706,0.0,3.4,156.0,4.0,'11111222,11111222,11111222' 
TCOON,ioos:station:TCOON:003:1,2017-01-01T18:54:00Z,26.8015,-97.4706,0.0,3.4,149.0,4.0,'11111222,11111222,11111222' 
TCOON,ioos:station:TCOON:003:1,2017-01-01T19:00:00Z,26.8015,-97.4706,0.0,3.6,149.0,4.2,'11111222,11111222,11111222' 
TCOON,ioos:station:TCOON:003:1,2017-01-01T19:06:00Z,26.8015,-97.4706,0.0,3.7,150.0,4.5,'11111222,11111222,11111222' 
TCOON,ioos:station:TCOON:003:1,2017-01-01T19:12:00Z,26.8015,-97.4706,0.0,3.8,144.0,4.4,'11111222,11111222,11111222' 
TCOON,ioos:station:TCOON:003:1,2017-01-01T19:18:00Z,26.8015,-97.4706,0.0,3.8,144.0,4.4,'1111122,1111122,1111122' 
TCOON,ioos:station:TCOON:003:1,2017-01-01T19:24:00Z,26.8015,-97.4706,0.0,3.3,142.0,4.7,'11111222,11111222,11111222' 
TCOON,ioos:station:TCOON:003:1,2017-01-01T19:30:00Z,26.8015,-97.4706,0.0,4.3,139.0,5.1,'11111222,11111222,11111222' 
TCOON,ioos:station:TCOON:003:1,2017-01-01T19:36:00Z,26.8015,-97.4706,0.0,4.7,138.0,5.4,'11111222,11111222,11111222' 
TCOON,ioos:station:TCOON:003:1,2017-01-01T19:42:00Z,26.8015,-97.4706,0.0,4.7,137.0,5.6,'11111222,11111222,11111222' 
TCOON,ioos:station:TCOON:003:1,2017-01-01T19:48:00Z,26.8015,-97.4706,0.0,4.9,141.0,5.8,'11111222,11111222,11111222' 
TCOON,ioos:station:TCOON:003:1,2017-01-01T19:54:00Z,26.8015,-97.4706,0.0,5.2,139.0,5.9,'11111222,11111222,11111222' 
TCOON,ioos:station:TCOON:003:1,2017-01-01T20:00:00Z,26.8015,-97.4706,0.0,5.1,142.0,5.8,'11111222,11111222,11111222' 
TCOON,ioos:station:TCOON:003:1,2017-01-01T20:06:00Z,26.8015,-97.4706,0.0,5.6,141.0,6.3,'11111222,11111222,11111222' 
TCOON,ioos:station:TCOON:003:1,2017-01-01T20:12:00Z,26.8015,-97.4706,0.0,5.8,144.0,6.6,'11111222,11111222,11111222' 
TCOON,ioos:station:TCOON:003:1,2017-01-01T20:18:00Z,26.8015,-97.4706,0.0,5.8,144.0,6.6,'1111122,1111122,1111122' 
TCOON,ioos:station:TCOON:003:1,2017-01-01T20:24:00Z,26.8015,-97.4706,0.0,6.2,142.0,6.8,'11111222,11111222,11111222' 
TCOON,ioos:station:TCOON:003:1,2017-01-01T20:30:00Z,26.8015,-97.4706,0.0,6.1,142.0,7.1,'11111222,11111222,11111222' 